Location: Plymouth
(43.7570°N, 71.6890°W)
Time: 22:12:18
(UTC-04:00)

Daily predictions for brighter satellites

Satellite Brightness Start Highest point End
(mag) Time Altitude Azimuth Time Altitude Azimuth Time Altitude Azimuth
USA 186 4.1 21:02:35 10° SSW 21:05:19 24° W 21:07:58 10° NW
Cosmos 1607 4.1 21:00:28 10° NW 21:06:55 82° WSW 21:13:10 10° SSE
Cosmos 158 Rocket 4.1 21:01:54 10° S 21:07:10 64° ESE 21:12:20 10° NNE
Cosmos 1346 Rocket 4.4 21:04:31 10° NNE 21:07:32 20° ENE 21:10:33 10° ESE
H-2A R/B 2.6 21:03:32 10° SE 21:08:31 46° ENE 21:13:39 10° N
Cosmos 1470 3.5 21:09:30 10° NNW 21:13:18 54° W 21:17:07 10° S
Cosmos 1626 Rocket 4.4 21:09:21 10° SSW 21:13:44 56° W 21:18:08 10° N
Meteor 2-11 Rocket 4.4 21:08:11 10° S 21:14:13 78° E 21:20:18 10° N
Cosmos 972 4.4 21:10:35 10° S 21:15:31 69° ESE 21:20:23 10° NNE
ERS-2 3.2 21:12:39 10° S 21:16:11 45° W 21:19:45 10° NNW
ARGOS 3.3 21:11:16 10° SSE 21:16:37 67° ENE 21:22:02 10° N
Meteor 1-24 Rocket 4.5 21:12:52 10° SSE 21:18:21 39° E 21:23:53 10° NNE
Cosmos 1726 4.3 21:19:25 10° NE 21:21:18 13° ENE 21:23:10 10° E
OAO 3 Rocket 4.4 21:19:26 10° SW 21:23:24 24° SSE 21:27:21 10° ESE
Meteor 2-5 Rocket 3.9 21:17:50 10° S 21:23:42 63° E 21:29:33 10° NNE
Cosmos 1844 Rocket 3.6 21:19:56 10° SSE 21:24:39 28° ESE 21:29:22 10° NE
Cosmos 1932 4.5 21:18:39 10° NNW 21:24:55 81° NE 21:30:57 11° SE
Cosmos-2242 3.9 21:21:14 10° N 21:25:15 34° ENE 21:29:00 11° SE
NOSS 5 (C) 4.4 21:22:44 10° SSW 21:26:38 68° SE 21:29:47 10° NE
NOSS 2-3 (D) 4.0 21:23:37 10° SW 21:28:11 82° NW 21:33:36 10° NE
Cosmos 1812 Rocket 4.3 21:24:15 10° NNW 21:28:30 54° W 21:32:44 10° S
MetOp-A 4.2 21:26:15 10° SSE 21:31:36 85° ENE 21:37:00 10° NNW
Resurs 01 Rocket 3.4 21:28:26 10° SSW 21:32:17 29° W 21:36:10 10° NW
Cosmos 1437 3.5 21:31:18 10° N 21:34:16 35° ENE 21:36:33 15° SE
ATLAS 3B R/B 3.8 21:29:05 10° NNW 21:35:04 33° NE 21:40:57 10° ESE
SL-08 RB Rocket 3.8 21:32:07 10° SSE 21:36:46 79° ENE 21:41:28 10° N
Cosmos 1953 Rocket 3.7 21:33:41 10° S 21:37:56 57° E 21:42:14 10° NNE
Cosmos 2084 4.1 21:35:39 10° NNW 21:39:18 39° NE 21:42:26 13° ESE
Cosmos 1758 Rocket 3.5 21:39:16 10° S 21:43:44 82° E 21:48:11 10° N
Cosmos 1908 3.9 21:46:21 10° N 21:49:58 38° ENE 21:52:26 18° SE
Terra 3.1 21:48:20 14° ESE 21:51:38 28° ENE 21:55:39 10° N
Helios 1A 3.4 21:50:13 17° SE 21:53:15 48° ENE 21:57:19 10° N
Cosmos 2263 Rocket 3.7 21:49:30 10° SW 21:54:50 40° WNW 22:00:10 10° NNE
ATLAS 2AS CENTAUR R/B 3.1 21:50:06 10° SSW 21:57:39 57° ESE 22:05:34 10° NE
Iridium 81 4.3 21:57:58 28° ESE 21:58:35 34° E 22:01:03 10° NNE
Cosmos 1315 Rocket 3.3 21:58:17 10° SSW 22:02:16 63° WNW 22:06:22 10° N
Cosmos 2285 Rocket 4.0 21:57:27 10° SSW 22:03:47 84° ESE 22:10:08 10° NNE
GENESIS II 4.1 22:00:08 10° SSW 22:04:00 74° ESE 22:07:55 10° NE
Helios 1B rocket 2.9 22:06:44 10° NNE 22:10:39 41° E 22:12:48 23° SSE
CZ-2C R/B 4.0 22:06:46 10° NE 22:11:00 23° E 22:13:04 18° ESE
ERS-1 Rocket 3.2 22:06:48 13° S 22:11:12 66° WSW 22:16:15 10° NNW
Timation 1 Rocket 4.4 22:06:33 10° S 22:12:22 58° ESE 22:18:13 10° NE
Cosmos 2221 4.1 22:10:59 10° NNE 22:14:26 22° ENE 22:16:18 17° ESE
SPOT 5 3.0 22:10:48 18° SSE 22:14:31 87° ENE 22:19:47 10° NNW
Cosmos 1340 3.2 22:13:33 10° N 22:17:13 45° ENE 22:18:53 27° SE
OE (NEXTSAT) 4.4 22:18:39 10° WNW 22:22:10 65° SSW 22:23:37 32° SE
Cosmos 1626 4.1 22:21:55 14° E 22:22:13 14° E 22:24:14 10° NE
Cosmos 921 Rocket 3.0 22:17:57 10° NNW 22:22:26 90° NNE 22:25:03 25° SSE
Meteor 1-29 3.5 22:20:28 10° NNE 22:23:41 39° E 22:24:34 32° SE
Lacrosse 5 1.9 22:19:06 10° SW 22:24:11 86° NW 22:29:17 10° NE
S3M 4.1 22:19:53 17° S 22:24:53 67° E 22:31:14 10° NNE
Cosmos 1300 3.7 22:22:27 10° NNE 22:25:55 31° ENE 22:27:12 25° ESE
Cosmos 1238 Rocket 4.0 22:24:04 10° SW 22:26:41 28° WNW 22:29:21 10° NNW
Cosmos 1674 2.8 22:25:59 17° SSW 22:28:46 73° W 22:32:37 10° N
NOSS 3-4 (A) 4.3 22:32:55 24° SE 22:35:00 29° ESE 22:40:22 10° NE
NOSS 3-4 (C) 4.3 22:33:05 24° SE 22:35:06 29° ESE 22:40:26 10° NE
Cosmos 807 4.3 22:36:36 45° ESE 22:36:53 47° E 22:39:51 10° NNE
CARTOSAT-1 3.5 22:36:10 29° SSE 22:38:20 88° E 22:42:41 10° NNW
Cosmos 2278 Rocket 2.8 22:38:39 27° SSE 22:40:55 37° ESE 22:46:06 10° NE
YAOGAN 11 4.4 22:39:24 30° SE 22:41:30 60° ENE 22:46:00 10° N
Cosmos 1346 Rocket 4.3 22:40:24 10° NNW 22:43:58 31° W 22:46:37 15° SSW
SL-14 R/B 3.4 22:44:17 38° SSE 22:45:23 54° E 22:49:14 10° NNE
COSMOS 2406 3.2 22:39:40 10° NNW 22:45:29 87° WSW 22:48:35 29° SSE
CENTAUR R/B 4.2 22:39:00 10° NNW 22:46:04 37° NE 22:53:43 10° ESE
SPOT 1/Viking Rocket 4.2 22:43:54 19° SSW 22:47:19 50° W 22:52:20 10° NNW
BREEZE-M DEB (TANK) 3.1 22:41:18 10° WSW 22:48:07 65° NNW 22:50:47 10° ENE
H-2A R/B 3.9 22:43:55 10° SSW 22:48:09 24° W 22:52:28 10° NW
Cosmos 1553 Rocket 4.1 22:44:41 14° SSW 22:50:01 70° W 22:56:06 10° N
Cosmos 220 Rocket 3.8 22:54:37 34° S 22:56:25 76° ESE 23:00:37 10° NNE
Cosmos 1726 3.0 22:53:14 10° NNW 22:56:49 43° W 22:58:22 27° SSW
Cosmos 1461 3.7 22:57:59 35° SE 22:58:30 36° ESE 23:02:52 10° NE
Cosmos 2315 Rocket 4.3 22:56:55 29° SSE 22:59:53 52° E 23:06:01 10° NNE
Cosmos 1844 4.0 22:55:49 10° SW 23:01:29 67° WNW 23:07:15 10° NNE
SL-8 R/B 3.6 22:58:01 10° WSW 23:02:51 76° SSE 23:07:40 10° ENE
Cosmos 1842 Rocket 3.9 22:59:29 10° NNW 23:03:45 56° W 23:05:36 31° SSW
COBE Rocket 4.5 22:59:14 10° NNE 23:04:04 44° E 23:05:34 35° SE
APEX 2.6 23:02:43 10° NNW 23:05:44 87° ENE 23:06:06 69° SSE
OAO 3 Rocket 4.3 23:02:03 10° WSW 23:05:27 27° SSW 23:05:27 27° SSW
IGS 5A 4.3 23:05:01 27° SSW 23:06:45 42° W 23:10:43 10° NNW
Cosmos 883 Rocket 4.4 23:03:26 29° S 23:06:49 77° E 23:13:03 10° N
Cosmos 1844 Rocket 3.7 23:02:50 10° SW 23:08:17 46° WNW 23:13:44 10° NNE
Cosmos 1076 Rocket 3.7 23:10:01 45° SE 23:10:52 54° E 23:15:01 10° NNE
RESURS DK-1 4.3 23:14:23 16° E 23:14:23 16° E 23:16:07 10° ENE
Cosmos 1703 4.4 23:14:55 28° E 23:14:56 28° E 23:18:18 10° NNE
SL-27 R/B 4.3 23:12:21 10° N 23:15:15 22° ENE 23:16:00 20° E
H-2A R/B 4.2 23:16:49 12° E 23:18:18 14° ENE 23:20:33 10° NNE
USA 238 DEB 4.1 23:13:09 10° NW 23:20:05 54° WSW 23:23:31 30° S
USA 238 4.1 23:13:16 10° NW 23:20:11 55° WSW 23:23:37 30° S
SL-08 ROCKET BODY 4.5 23:14:41 10° N 23:20:54 70° E 23:23:33 36° SSE
CZ-2C R/B 3.7 23:18:55 28° SSW 23:21:52 56° W 23:27:34 10° NNW
Okean 3 Rocket 3.6 23:22:26 50° SSE 23:23:19 64° E 23:27:40 10° NNE
ATLAS 3B R/B 2.7 23:19:38 10° NW 23:26:09 62° WSW 23:28:55 35° S
Cosmos 2082 Rocket 2.8 23:22:04 10° NNW 23:27:37 49° ENE 23:30:12 29° ESE
Terra 3.0 23:27:13 24° SW 23:29:15 34° W 23:33:35 10° NNW
SAR-Lupe-4 3.4 23:29:58 73° ESE 23:30:10 77° ENE 23:33:47 10° N
Mayak 0.0 23:27:32 10° NE 23:31:04 28° E 23:31:04 28° E
NOSS 2-2 (C) 4.0 23:31:55 39° E 23:31:55 39° E 23:35:25 10° NE
ATLAS 5 CENTAUR R/B 2.0 23:32:31 43° ESE 23:32:33 43° ESE 23:37:09 10° NE
NOSS 3-2 (A) 4.1 23:26:58 10° NW 23:34:30 69° WSW 23:38:29 33° SSE
Cosmos 1833 Rocket 2.9 23:31:34 10° NNW 23:37:10 64° ENE 23:39:19 37° SE
Cosmos 2251 Rocket 4.1 23:33:43 20° SW 23:37:20 56° WNW 23:42:36 10° NNE
Cosmos 2151 4.1 23:44:10 30° E 23:44:17 30° E 23:48:00 10° NNE
Spot 4 4.0 23:43:44 44° SSW 23:45:05 63° WSW 23:49:56 10° NNW
SAR-Lupe-1 4.0 23:48:04 76° WSW 23:48:04 76° WSW 23:51:41 10° NNW
Cosmos 1328 4.2 23:48:00 48° WSW 23:48:43 57° W 23:52:38 10° N
ATLAS 2AS CENTAUR R/B 4.2 23:41:29 10° WSW 23:49:00 44° NW 23:56:43 10° NNE
CZ-4C R/B 4.3 23:48:41 34° E 23:49:15 36° ENE 23:52:51 10° N
CZ-2C R/B 3.3 23:46:17 10° N 23:51:34 50° WNW 23:54:35 24° SW
Cosmos 2221 3.7 23:48:11 10° NNW 23:52:03 32° W 23:53:10 28° WSW
Cosmos 1328 Rocket 3.9 23:49:47 10° N 23:54:02 50° E 23:54:36 46° ESE
